Regional Weather Roundup
Issued by NWS

Home | Current Version | Previous Version | Text Only | Print | Product List | Glossary Off
Versions: 1 2 3 4 5 6 7 8 9 10 11 12 13 14 15 16 17 18 19 20 21 22 23 24 25 26 27 28 29 30 31 32 33 34 35 36 37 38 39 40 41 42 43 44 45 46 47 48 49 50

036
ASUS43 KLOT 032008
RWRIL

ILLINOIS REGIONAL WEATHER ROUNDUP
NATIONAL WEATHER SERVICE CHICAGO/ROMEOVILLE IL
200 PM CST SAT DEC 03 2016

NOTE: "FAIR" INDICATES FEW OR NO CLOUDS BELOW 12,000 FEET WITH NO
SIGNIFICANT WEATHER AND/OR OBSTRUCTIONS TO VISIBILITY.

* THESE STATIONS ARE NOT UNDER NWS QUALITY CONTROL. THEY ALSO MAY NOT
  REPORT WEATHER SUCH AS PRECIPITATION OR FOG.

ILZ001-002-007-009-015-016-024-032100-
NORTHWEST ILLINOIS

CITY           SKY/WX    TMP DP  RH WIND       PRES   REMARKS
MOLINE         CLOUDY    39  25  57 S6        30.31F WCI  35
STERLING*      CLOUDY    37  26  64 SW6       30.32F WCI  32
SAVANNA*       CLOUDY    37  26  64 CALM      30.31F
$$

ILZ003-004-008-010-011-017-018-032100-
NORTH CENTRAL ILLINOIS

CITY           SKY/WX    TMP DP  RH WIND       PRES   REMARKS
ROCKFORD       CLOUDY    36  24  62 NW3       30.33F
FREEPORT*      CLOUDY    34  25  70 CALM      30.32F
ROCHELLE*      PTSUNNY   36  27  69 SW5       30.31F WCI  32
DE KALB*       SUNNY     34  25  69 NW8       30.31F WCI  28
$$

ILZ005-006-012>014-019>023-032100-
NORTHEAST ILLINOIS

CITY           SKY/WX    TMP DP  RH WIND       PRES   REMARKS
CHICAGO-OHARE  CLOUDY    33  23  66 W7        30.32F WCI  27
CHICAGO-MIDWAY CLOUDY    34  22  61 W6        30.33F WCI  29
AURORA         MOSUNNY   35  25  66 W3        30.32F
LANSING*       CLOUDY    34  27  76 SW6       30.34S WCI  29
JOLIET*        CLOUDY    35  26  69 W3        30.35S
WAUKEGAN       CLOUDY    32  23  69 CALM      30.31F
DUPAGE AIRPORT CLOUDY    33  24  69 W6        30.31F WCI  28
KANKAKEE*      CLOUDY    34  26  72 W7        30.36S WCI  27
WHEELING       CLOUDY    33  23  66 W9        30.34F WCI  25
MORRIS*        CLOUDY    34  25  71 CALM      30.34S
ROMEOVILLE*    CLOUDY    33  28  82 NW7       30.33F WCI  27
NORTHERLY ISL    N/A     34  23  64 S6          N/A  WCI  29
$$

LMZ740>746-032100-
SOUTHERN LAKE MICHIGAN

STATION/POSITION SKY/WX   TEMP    WIND        PRES    VSBY  WAVE
                          AIR SEA DIR/SP/G                  HT/PER
                          (F)     (DEG/KT/KT) (MB)    (MI)  (FT/S)
SOUTHERN BUOY              35 49  260/ 10/ 12 1027.0          1/ 3
HARRISON CRIB              35     270/  5/  7   N/A
BURNHAM HARBOR             35     250/  3/ 11   N/A
CALUMET HARBOR             34     220/  5/  8 1026.3F
BURNS HARBOR               36     270/  9/ 10 1027.8S
MICHIGAN CITY              35     240/ 10/ 12   N/A
$$

ILZ025>027-034>036-040-047-049-050-058-095>099-032100-
WEST-CENTRAL ILLINOIS

CITY           SKY/WX    TMP DP  RH WIND       PRES   REMARKS
QUINCY         MOSUNNY   42  33  70 SE8       30.29F
GALESBURG*     CLOUDY    37  27  69 CALM      30.33S
MACOMB*        CLOUDY    40  30  69 E5        30.34F
JACKSONVILLE*  CLOUDY    40  32  73 E6        30.32F
PITTSFIELD*    CLOUDY    43  34  71 E6        30.30F
$$

ILZ028>032-037-038-041>044-048-051>054-059>061-032100-
CENTRAL ILLINOIS

CITY           SKY/WX    TMP DP  RH WIND       PRES   REMARKS
PONTIAC        CLOUDY    34  29  83 NW6       30.36F WCI  29
BLOOMINGTON    CLOUDY    35  27  72 N5        30.34F WCI  31
DECATUR        CLOUDY    40  30  67 CALM      30.34F
PEORIA         CLOUDY    38  27  64 CALM      30.34F
LACON*         CLOUDY    35  26  70 S5        30.35F WCI  31
LINCOLN*       CLOUDY    39  30  71 CALM      30.34F
SPRINGFIELD    PTSUNNY   41  31  67 E7        30.33F
TAYLORVILLE    MOSUNNY   40  32  70 CALM      30.32F
$$

ILZ033-039-045-046-055>057-062-063-032100-
EAST-CENTRAL ILLINOIS

CITY           SKY/WX    TMP DP  RH WIND       PRES   REMARKS
CHAMPAIGN      CLOUDY    38  28  67 NW5       30.34F WCI  34
RANTOUL*       CLOUDY    37  30  75 N5        30.34F WCI  33
MATTOON        CLOUDY    40  30  67 NE3       30.32F
PARIS*         CLOUDY    37  30  76 NW5       30.35F WCI  34
$$

ILZ079-100>102-032100-
SOUTHWEST ILLINOIS

CITY           SKY/WX    TMP DP  RH WIND       PRES   REMARKS
ALTON          CLOUDY    43  32  65 NE5       30.31F
BELLEVILLE     CLOUDY    43  34  71 SE3       30.30F
CAHOKIA*       CLOUDY    44  31  60 SE6       30.30F
SPARTA*        PTSUNNY   42  32  68 SE9       30.31F
$$

ILZ064>066-069>071-074>076-080>082-084>086-088>090-092>094-032100-
SOUTH-CENTRAL ILLINOIS

CITY           SKY/WX    TMP DP  RH WIND       PRES   REMARKS
CARBONDALE     PTSUNNY   44  32  62 SE6       30.31F
CAIRO*         CLOUDY    43  32  64 E10       30.30F
EFFINGHAM*     CLOUDY    42  33  69 CALM      30.34F
MARION         CLOUDY    45  32  61 SE9       30.32F
CENTRALIA*     CLOUDY    43  34  70 CALM      30.30F HAZE
SALEM*         CLOUDY    44  32  62 E3        30.32F
METROPOLIS*    CLOUDY    44  31  62 E8        30.32F
$$

ILZ067-068-072-073-078-083-087-091-032100-
SOUTHEAST ILLINOIS

CITY           SKY/WX    TMP DP  RH WIND       PRES   REMARKS
LAWRENCEVILLE  CLOUDY    44  30  57 CALM      30.33F
FLORA*         CLOUDY    44  32  63 CALM      30.32F
FAIRFIELD*     CLOUDY    43  32  65 CALM      30.31F
HARRISBURG*    CLOUDY    44  34  67 SE6       30.32F
ROBINSON*      CLOUDY    40  31  67 N5        30.34F
CARMI*         CLOUDY    44  33  65 NE3       30.32F
$$

ABBREVIATIONS USED IN REMARKS
   TC - TEMPERATURE IN CELSIUS
  WCI - WIND CHILL INDEX
   HX - HEAT INDEX
  VSB - VISIBILITY
$$





USA.gov is the U.S. government's official web portal to all federal, state and local government web resources and services.